Location: Stony Creek
(40.9500°S, 175.8500°E)
Time: 10:12:19
(UTC+00:00)

Cosmos 1190 Rocket - Pass Details

Date: 15 May 2026
Orbit: 753 x 775 km, 74.1° (Epoch: 10 June)

Event Time Altitude Azimuth Distance (km) Brightness Sun altitude
Rises 18:41:22 0° 199° (SSW) 3,261 6.9 -7.2°
Reaches altitude 10° 18:43:45 10° 198° (SSW) 2,332 6.2 -6.8°
Maximum altitude 18:49:04 86° 110° (ESE) 784 4.1 -5.8°
Drops below altitude 10° 18:54:21 10° 19° (NNE) 2,316 7.1 -4.9°
Sets 18:56:43 0° 19° (NNE) 3,238 7.9 -4.5°
